[[{"header":{"parameterUnit":"m.s-1","parameterCategory":2,"la1":30.2991,"la2":30.254,"lo1":-89.0895,"lo2":-89.0444,"dy":0.0017,"dx":0.0017,"nx":28,"ny":28,"refTime":"2024-04-12T21:00:00:Z","depth":"0","parameterNumber":2,"parameterNumberName":"U-component_of_CURRENTS"},"data":[0,0,0,0,0,0,0,0,0,0,0,0,0,0,0,0,0,0,0,0,0,0,0,0,0,0,0,0,0,0,0,0,0,0,0,0,0,0,0,0,0,0,0,0,0,0,0,0,0,0,0,0,0,0,0,0,0,0,-0.299,-0.2991,0,-0.3025,-0.3025,-0.3025,-0.3001,-0.3,-0.2999,-0.2999,-0.2969,-0.2969,-0.2969,0,0,0,0,0,0,0,0,0,0,0,0,0,-0.2941,-0.2942,-0.299,-0.2991,-0.2991,-0.3025,-0.3025,-0.3025,-0.3001,-0.3,-0.2999,-0.2998,-0.2969,-0.2969,-0.2969,0,0,0,0,0,0,0,0,0,0,0,0,0,-0.2965,-0.2942,-0.299,-0.2986,-0.2986,-0.3024,-0.3025,-0.3025,-0.3001,-0.3,-0.2999,-0.2998,-0.2969,-0.2969,-0.2969,-0.2992,0,0,-0.2969,-0.2969,0,0,0,0,0,0,0,0,-0.2963,-0.2966,-0.2986,-0.2986,-0.2987,-0.301,-0.2997,-0.3012,-0.3002,-0.2992,-0.2999,-0.2997,-0.298,-0.2979,-0.2984,-0.2991,-0.299,-0.2969,-0.2969,-0.2969,-0.2969,0,0,0,0,0,0,0,-0.2962,-0.2965,-0.3001,-0.2987,-0.2987,-0.2995,-0.2997,-0.3,-0.2989,-0.2993,-0.2992,-0.3001,-0.2979,-0.2985,-0.2983,-0.2989,-0.2969,-0.2969,-0.2969,-0.2969,-0.3001,-0.3002,0,0,0,0,0,0,-0.2963,-0.2963,-0.2999,-0.3002,-0.2975,-0.2997,-0.2999,-0.3001,-0.299,-0.2989,-0.3002,-0.3,-0.2985,-0.2984,-0.2982,-0.2998,-0.2969,-0.2969,-0.2969,-0.3001,-0.3002,-0.3003,0,0,0,0,0,0,-0.2962,-0.2966,-0.2998,-0.2986,-0.2991,-0.2999,-0.3002,-0.3003,-0.3002,-0.2998,-0.2995,-0.3001,-0.2984,-0.2982,-0.2985,-0.2997,-0.2969,-0.2969,-0.2999,-0.3001,-0.3002,-0.3036,0,0,0,0,0,0,-0.296,-0.2965,-0.2954,-0.2986,-0.2992,-0.3014,-0.3004,-0.3004,-0.3011,-0.3008,-0.2997,-0.2993,-0.2983,-0.2985,-0.2985,-0.2996,-0.2969,-0.2998,-0.3,-0.3002,-0.3034,-0.3038,-0.3042,0,0,0,0,0,-0.2958,-0.2944,-0.2953,-0.2957,-0.2981,-0.3014,-0.3018,-0.3018,-0.3012,-0.3012,-0.301,-0.2993,-0.2996,-0.2986,-0.2985,-0.2997,-0.2998,-0.3,-0.3002,-0.3032,-0.3038,-0.3042,0,0,0,0,0,0,-0.2889,-0.2942,-0.2952,-0.2947,-0.2979,-0.3011,-0.3004,-0.302,-0.302,-0.3012,-0.3005,-0.3002,-0.3008,-0.3002,-0.2992,-0.3012,-0.2994,-0.2996,-0.3017,-0.3022,-0.3027,-0.3011,-0.2969,0,0,0,0,0,-0.288,-0.2894,-0.2943,-0.2934,-0.2951,-0.2982,-0.2991,-0.3005,-0.3018,-0.3016,-0.3016,-0.3015,-0.302,-0.3019,-0.3019,-0.3033,-0.3007,-0.304,-0.3044,-0.3048,-0.3036,-0.3019,-0.302,-0.3009,-0.3009,-0.3009,0,0,-0.2847,-0.2878,-0.2882,-0.2923,-0.2942,-0.298,-0.2982,-0.3001,-0.3028,-0.3014,-0.3028,-0.3027,-0.3027,-0.304,-0.3042,-0.3033,-0.3038,-0.305,-0.3054,-0.3039,-0.3021,-0.3022,-0.3023,-0.3011,-0.301,-0.301,0,0,-0.2815,-0.2823,-0.2841,-0.2878,-0.2927,-0.2958,-0.2968,-0.3012,-0.3019,-0.3048,-0.3043,-0.3049,-0.3061,-0.3064,-0.3067,-0.3097,-0.3061,-0.3099,-0.3108,-0.3093,-0.3093,-0.3093,-0.3061,-0.3058,-0.3102,-0.3102,-0.3103,0,-0.2776,-0.2809,-0.2845,-0.2884,-0.2911,-0.2953,-0.2986,-0.3011,-0.3049,-0.3056,-0.3051,-0.3071,-0.3072,-0.3088,-0.31,-0.3105,-0.3081,-0.3089,-0.3097,-0.3096,-0.3095,-0.3063,-0.3059,-0.3104,-0.3104,-0.3104,-0.3104,0,-0.278,-0.2808,-0.2817,-0.2891,-0.2921,-0.2951,-0.301,-0.3035,-0.3054,-0.3078,-0.3092,-0.3098,-0.3104,-0.3116,-0.3117,-0.3121,-0.31,-0.3103,-0.308,-0.3098,-0.3063,-0.3058,-0.3107,-0.3106,-0.3106,-0.3105,0,0,-0.2693,-0.2804,-0.2806,-0.2847,-0.2931,-0.2958,-0.3006,-0.3057,-0.3074,-0.3103,-0.3113,-0.3137,-0.313,-0.3132,-0.3136,-0.3129,-0.3112,-0.3113,-0.3112,-0.3074,-0.3059,-0.2977,-0.2963,-0.3112,-0.3112,-0.3111,-0.3036,0,-0.2688,-0.2761,-0.2818,-0.2877,-0.2921,-0.2982,-0.3022,-0.3068,-0.3095,-0.3113,-0.3124,-0.313,-0.3141,-0.3136,-0.3135,-0.312,-0.31,-0.3131,-0.3052,-0.3049,-0.2968,-0.2955,-0.2829,-0.2744,-0.303,-0.303,-0.3029,0,-0.2679,-0.2734,-0.2796,-0.2888,-0.2908,-0.2946,-0.3004,-0.3048,-0.309,-0.3105,-0.3117,-0.312,-0.3126,-0.3123,-0.3097,-0.3113,-0.3081,-0.3065,-0.3062,-0.2965,-0.2957,-0.2773,-0.2724,-0.2695,-0.3021,-0.3021,-0.3022,0,-0.2613,-0.2714,-0.2761,-0.2796,-0.2905,-0.2927,-0.2973,-0.303,-0.3052,-0.3086,-0.3092,-0.3103,-0.3097,-0.3075,-0.3057,-0.3068,-0.3009,-0.3022,-0.2913,-0.2907,-0.2771,-0.2754,-0.2674,-0.2978,-0.2978,-0.2979,-0.2979,0,-0.2595,-0.2627,-0.2731,-0.276,-0.2792,-0.2881,-0.2904,-0.2955,-0.3005,-0.3013,-0.3068,-0.3064,-0.3082,-0.3062,-0.304,-0.2955,-0.2994,-0.2894,-0.2877,-0.278,-0.2765,-0.2711,-0.2755,-0.2976,-0.2976,-0.2977,-0.2977,0,-0.2516,-0.2598,-0.2645,-0.2743,-0.2766,-0.278,-0.2855,-0.2866,-0.2939,-0.2949,-0.2956,-0.3019,-0.299,-0.2992,-0.2951,-0.2916,-0.2802,-0.2815,-0.2693,-0.2661,-0.2517,-0.2568,-0.2481,-0.241,-0.2665,-0.2663,-0.266,0,-0.2484,-0.2504,-0.2593,-0.2602,-0.264,-0.268,-0.2699,-0.2802,-0.282,-0.2909,-0.2898,-0.2907,-0.2875,-0.2804,-0.2737,-0.2654,-0.2684,-0.2507,-0.2504,-0.2469,-0.2514,-0.2561,-0.2512,-0.234,-0.2336,-0.2332,-0.2329,0,-0.2394,-0.2423,-0.2459,-0.248,-0.2501,-0.2532,-0.2576,-0.2589,-0.2701,-0.272,-0.2741,-0.2728,-0.2679,-0.2551,-0.247,-0.2412,-0.2442,-0.2424,-0.2418,-0.2267,-0.2282,-0.2217,-0.2437,-0.2295,-0.2299,-0.2301,-0.2303,-0.2304,-0.2291,-0.2287,-0.2325,-0.2334,-0.2357,-0.2363,-0.2328,-0.2394,-0.2406,-0.2414,-0.2517,-0.2471,-0.2433,-0.2287,-0.222,-0.2073,-0.2171,-0.2022,-0.209,-0.2142,-0.2059,-0.2196,-0.2023,-0.2025,-0.2026,-0.2027,-0.2029,0,-0.2157,-0.2169,-0.217,-0.2178,-0.2138,-0.2204,-0.2219,-0.216,-0.2116,-0.2186,-0.2175,-0.2176,-0.2034,-0.2009,-0.1882,-0.1786,-0.1746,-0.1755,-0.1794,-0.176,-0.1878,-0.1848,-0.1591,-0.1591,-0.1591,-0.1591,-0.1591,-0.1592,-0.2085,-0.2048,-0.2061,-0.1957,-0.1946,-0.1839,-0.1809,-0.1758,-0.177,-0.1737,-0.1778,-0.1858,-0.1872,-0.1963,-0.1794,-0.1687,-0.1662,-0.1601,-0.1652,-0.1752,-0.1783,-0.1813,-0.179,-0.1526,-0.1526,-0.1436,-0.1436,-0.1436]},{"header":{"parameterUnit":"m.s-1","parameterCategory":2,"la1":30.2991,"la2":30.254,"lo1":-89.0895,"lo2":-89.0444,"dy":0.0017,"dx":0.0017,"nx":28,"ny":28,"refTime":"2024-04-12T21:00:00:Z","depth":"0","parameterNumber":3,"parameterNumberName":"V-component_of_CURRENTS"},"data":[0,0,0,0,0,0,0,0,0,0,0,0,0,0,0,0,0,0,0,0,0,0,0,0,0,0,0,0,0,0,0,0,0,0,0,0,0,0,0,0,0,0,0,0,0,0,0,0,0,0,0,0,0,0,0,0,0,0,-0.0229,-0.0228,0,-0.0123,-0.0122,-0.0121,-0.0047,-0.0047,-0.0046,-0.0046,0.0086,0.0089,0.0092,0,0,0,0,0,0,0,0,0,0,0,0,0,-0.0345,-0.0343,-0.0229,-0.0228,-0.0227,-0.0123,-0.0122,-0.012,-0.0047,-0.0047,-0.0046,-0.0045,0.0085,0.0089,0.0092,0,0,0,0,0,0,0,0,0,0,0,0,0,-0.0272,-0.0342,-0.023,-0.0178,-0.0173,-0.0124,-0.0122,-0.012,-0.0047,-0.0047,-0.0046,-0.0045,0.0084,0.0088,0.0093,0.0106,0,0,0.0107,0.0109,0,0,0,0,0,0,0,0,-0.0276,-0.0268,-0.0187,-0.0182,-0.0175,-0.0098,-0.0114,-0.0043,-0.0048,-0.0094,-0.0046,-0.0045,0.0026,0.0035,0.0054,0.0112,0.0118,0.0107,0.011,0.0112,0.0113,0,0,0,0,0,0,0,-0.0281,-0.0272,-0.0187,-0.0186,-0.0179,-0.0152,-0.0141,-0.01,-0.0039,-0.009,-0.0085,-0.0074,0.003,0.0049,0.0058,0.012,0.0107,0.0111,0.0114,0.0116,0.0213,0.0213,0,0,0,0,0,0,-0.0297,-0.0276,-0.019,-0.0184,-0.0225,-0.0151,-0.0139,-0.0123,-0.004,-0.0027,-0.0075,-0.0071,0.0041,0.0052,0.0063,0.0083,0.0112,0.0116,0.0119,0.0213,0.0213,0.0213,0,0,0,0,0,0,-0.03,-0.029,-0.0194,-0.0228,-0.0214,-0.015,-0.0133,-0.0122,-0.0101,-0.0028,-0.0014,-0.0066,0.0042,0.0056,0.0098,0.0089,0.0118,0.0122,0.0213,0.0213,0.0213,0.0125,0,0,0,0,0,0,-0.0304,-0.0292,-0.0293,-0.0229,-0.0213,-0.0176,-0.0134,-0.012,-0.0096,-0.009,-0.0017,-0.0003,0.0044,0.009,0.0102,0.0096,0.0126,0.0214,0.0213,0.0213,0.0128,0.0121,0.0116,0,0,0,0,0,-0.0308,-0.0314,-0.0293,-0.0283,-0.0214,-0.0177,-0.0166,-0.0117,-0.0096,-0.0095,-0.0041,-0.0006,0.0097,0.0094,0.0108,0.0102,0.0214,0.0213,0.0213,0.013,0.0123,0.0116,0,0,0,0,0,0,-0.0366,-0.0305,-0.0281,-0.0268,-0.023,-0.0165,-0.016,-0.0126,-0.0082,-0.0077,-0.0007,0.0009,0.0043,0.0085,0.0079,0.0131,0.0161,0.0163,0.0093,0.0087,0.0081,0.0066,0.013,0,0,0,0,0,-0.038,-0.0368,-0.0307,-0.03,-0.0283,-0.0224,-0.0204,-0.0172,-0.0122,-0.0102,-0.005,0.0006,0.0052,0.0077,0.0124,0.0149,0.0195,0.0156,0.015,0.0145,0.0142,0.0197,0.0196,0.0212,0.0212,0.0212,0,0,-0.04,-0.0367,-0.036,-0.0312,-0.0278,-0.0266,-0.021,-0.0188,-0.0176,-0.0096,-0.0068,-0.0014,0.0054,0.0086,0.0104,0.0119,0.0164,0.0144,0.0139,0.014,0.0197,0.0195,0.0194,0.0211,0.0211,0.0212,0,0,-0.0444,-0.0407,-0.0414,-0.039,-0.0347,-0.0305,-0.0304,-0.0242,-0.0213,-0.018,-0.0118,-0.007,-0.0003,0.0047,0.0081,0.0071,0.013,0.0084,0.0043,0.0096,0.0095,0.0094,0.0146,0.0151,0.0081,0.0081,0.0081,0,-0.0473,-0.047,-0.0413,-0.0419,-0.0409,-0.0329,-0.0342,-0.0298,-0.0233,-0.0211,-0.0185,-0.0078,-0.002,0.0027,0.0028,0.0056,0.0096,0.0061,0.0087,0.0087,0.0088,0.0142,0.0149,0.0077,0.0077,0.0078,0.0078,0,-0.0521,-0.0522,-0.0527,-0.0503,-0.0486,-0.0484,-0.042,-0.0391,-0.0344,-0.0295,-0.0241,-0.0157,-0.0094,-0.0067,-0.0019,0.0017,0.0045,0.007,0.0099,0.0081,0.0139,0.0148,0.0071,0.0072,0.0074,0.0075,0,0,-0.0573,-0.0564,-0.0567,-0.0579,-0.0534,-0.0525,-0.0502,-0.0456,-0.0437,-0.0365,-0.0341,-0.0248,-0.0195,-0.0153,-0.0086,-0.0033,0.0014,0.0016,0.0021,0.0058,0.0131,0.0205,0.0222,0.0041,0.0042,0.0043,0.0166,0,-0.0629,-0.0673,-0.0643,-0.0679,-0.0694,-0.0627,-0.0617,-0.0565,-0.0497,-0.0449,-0.0351,-0.03,-0.023,-0.02,-0.0137,-0.0021,0.0033,-0.0022,0.0151,0.0157,0.0217,0.0233,0.0281,0.04,0.0175,0.0176,0.0177,0,-0.0684,-0.0707,-0.0762,-0.0773,-0.0773,-0.0775,-0.0737,-0.0712,-0.0617,-0.0568,-0.0488,-0.0405,-0.0309,-0.0253,-0.0073,-0.0112,-0.0002,0.0089,0.0096,0.0204,0.0248,0.0385,0.0425,0.0626,0.0191,0.019,0.0189,0,-0.0758,-0.0789,-0.0839,-0.0844,-0.0838,-0.0844,-0.0824,-0.075,-0.073,-0.0631,-0.0601,-0.0478,-0.0412,-0.0265,-0.006,-0.0071,0.0144,0.0151,0.0321,0.0327,0.0423,0.0437,0.0673,0.027,0.027,0.027,0.0269,0,-0.0832,-0.0869,-0.0878,-0.0907,-0.096,-0.0921,-0.0937,-0.0891,-0.0828,-0.0804,-0.0667,-0.061,-0.0411,-0.0255,-0.0083,0.0161,0.0131,0.0324,0.0369,0.0394,0.0403,0.0627,0.0696,0.0274,0.0273,0.0273,0.0272,0,-0.0905,-0.0912,-0.0973,-0.0991,-0.0998,-0.1031,-0.1023,-0.1023,-0.0945,-0.0907,-0.0883,-0.071,-0.0496,-0.0272,-0.0017,0.0137,0.0491,0.0448,0.0468,0.0514,0.0841,0.09,0.1161,0.1289,0.0638,0.064,0.0643,0,-0.0948,-0.0986,-0.1041,-0.1083,-0.1093,-0.1125,-0.1143,-0.1091,-0.1083,-0.0953,-0.0945,-0.0735,-0.0562,-0.0147,0.0163,0.0482,0.0625,0.0702,0.0692,0.0885,0.0984,0.1016,0.1107,0.0782,0.0785,0.0788,0.079,0,-0.1023,-0.1039,-0.109,-0.1175,-0.1218,-0.1262,-0.1276,-0.1289,-0.121,-0.1139,-0.1,-0.0844,-0.0431,-0.0027,0.0394,0.0581,0.0859,0.0765,0.0966,0.1125,0.1175,0.1311,0.0671,0.0813,0.0811,0.0809,0.0808,0.0807,-0.107,-0.1129,-0.119,-0.1269,-0.1325,-0.1375,-0.1392,-0.1373,-0.1334,-0.1191,-0.1045,-0.0747,-0.0176,0.0437,0.0669,0.115,0.1079,0.1276,0.1334,0.135,0.1481,0.0895,0.1086,0.1086,0.1085,0.1085,0.1084,0,-0.1125,-0.1186,-0.1271,-0.1364,-0.143,-0.1432,-0.1462,-0.1432,-0.1359,-0.1169,-0.0977,-0.0327,0.0245,0.0769,0.1435,0.1703,0.1757,0.1822,0.1883,0.195,0.1447,0.1462,0.1742,0.1742,0.1741,0.1741,0.1741,0.1741,-0.1157,-0.1249,-0.1296,-0.1421,-0.1477,-0.1515,-0.1518,-0.1438,-0.1295,-0.0917,-0.0544,-0.0258,0.0497,0.1546,0.2155,0.2208,0.2446,0.2414,0.2545,0.2197,0.215,0.2105,0.214,0.2557,0.2558,0.3039,0.3044,0.3047]}],[{"header":{"parameterUnit":"m.s-1","parameterCategory":2,"la1":30.2991,"la2":30.254,"lo1":-89.0895,"lo2":-89.0444,"dy":0.0017,"dx":0.0017,"nx":28,"ny":28,"refTime":"2024-04-12T21:00:00:Z","depth":"2","parameterNumber":2,"parameterNumberName":"U-component_of_CURRENTS"},"data":[0,0,0,0,0,0,0,0,0,0,0,0,0,0,0,0,0,0,0,0,0,0,0,0,0,0,0,0,0,0,0,0,0,0,0,0,0,0,0,0,0,0,0,0,0,0,0,0,0,0,0,0,0,0,0,0,0,0,-0.2593,-0.2594,0,-0.2642,-0.2642,-0.2642,-0.2629,-0.2628,-0.2627,-0.2626,-0.2627,-0.2627,-0.2628,0,0,0,0,0,0,0,0,0,0,0,0,0,-0.2499,-0.2501,-0.2593,-0.2594,-0.2595,-0.2642,-0.2642,-0.2642,-0.2629,-0.2628,-0.2627,-0.2626,-0.2627,-0.2627,-0.2628,0,0,0,0,0,0,0,0,0,0,0,0,0,-0.2541,-0.2501,-0.2593,-0.2595,-0.2596,-0.2641,-0.2642,-0.2643,-0.2629,-0.2628,-0.2627,-0.2626,-0.2626,-0.2627,-0.2628,-0.2658,0,0,-0.2632,-0.2632,0,0,0,0,0,0,0,0,-0.2538,-0.2544,-0.2594,-0.2595,-0.2596,-0.263,-0.2609,-0.2646,-0.2629,-0.2614,-0.2626,-0.2625,-0.2626,-0.2627,-0.2636,-0.2659,-0.2659,-0.2632,-0.2633,-0.2633,-0.2633,0,0,0,0,0,0,0,-0.2535,-0.2542,-0.261,-0.2595,-0.2597,-0.2598,-0.2602,-0.2616,-0.2623,-0.2615,-0.2615,-0.2625,-0.2625,-0.2635,-0.2636,-0.2659,-0.2632,-0.2633,-0.2633,-0.2634,-0.2695,-0.2696,0,0,0,0,0,0,-0.2535,-0.2539,-0.2609,-0.2612,-0.2567,-0.26,-0.2605,-0.2618,-0.2624,-0.2625,-0.2625,-0.2624,-0.2634,-0.2634,-0.2636,-0.2667,-0.2633,-0.2634,-0.2635,-0.2694,-0.2695,-0.2696,0,0,0,0,0,0,-0.2533,-0.2541,-0.2607,-0.2578,-0.2587,-0.2603,-0.2619,-0.262,-0.2628,-0.2633,-0.2632,-0.2632,-0.2633,-0.2634,-0.2649,-0.2666,-0.2635,-0.2636,-0.2693,-0.2694,-0.2696,-0.2731,0,0,0,0,0,0,-0.253,-0.254,-0.2544,-0.2578,-0.2588,-0.263,-0.262,-0.2622,-0.2637,-0.2635,-0.2638,-0.2637,-0.2632,-0.2648,-0.265,-0.2667,-0.2636,-0.2692,-0.2694,-0.2695,-0.2729,-0.2734,-0.2738,0,0,0,0,0,-0.2527,-0.2532,-0.2544,-0.2552,-0.2595,-0.2631,-0.2636,-0.2642,-0.2638,-0.2644,-0.2648,-0.2637,-0.2661,-0.265,-0.2652,-0.267,-0.2691,-0.2693,-0.2695,-0.2727,-0.2733,-0.2738,0,0,0,0,0,0,-0.2483,-0.2533,-0.2546,-0.2563,-0.2596,-0.2629,-0.2632,-0.2647,-0.2658,-0.2652,-0.2652,-0.2652,-0.2671,-0.2669,-0.2657,-0.2693,-0.2673,-0.2676,-0.2696,-0.2702,-0.2707,-0.2693,-0.2637,0,0,0,0,0,-0.2481,-0.2499,-0.2548,-0.256,-0.2577,-0.2608,-0.2622,-0.2636,-0.2655,-0.2658,-0.2665,-0.2671,-0.2685,-0.269,-0.2698,-0.2723,-0.2701,-0.2736,-0.274,-0.2744,-0.2736,-0.2726,-0.2728,-0.2703,-0.2703,-0.2703,0,0,-0.2464,-0.2495,-0.2502,-0.2552,-0.2573,-0.2609,-0.2612,-0.2637,-0.2665,-0.2657,-0.2682,-0.2687,-0.2695,-0.2718,-0.2726,-0.2717,-0.274,-0.2747,-0.275,-0.2739,-0.2728,-0.273,-0.2732,-0.2705,-0.2705,-0.2704,0,0,-0.2447,-0.2471,-0.2487,-0.2523,-0.257,-0.26,-0.2611,-0.2655,-0.2667,-0.2703,-0.2702,-0.2715,-0.2741,-0.2748,-0.2755,-0.2791,-0.2763,-0.2798,-0.2812,-0.2803,-0.2805,-0.2806,-0.2778,-0.2776,-0.2801,-0.2802,-0.2802,0,-0.2424,-0.246,-0.2494,-0.2528,-0.2557,-0.2599,-0.263,-0.266,-0.2702,-0.2715,-0.271,-0.2748,-0.2754,-0.2782,-0.2794,-0.2801,-0.2782,-0.2791,-0.2808,-0.2808,-0.2809,-0.278,-0.2777,-0.2804,-0.2803,-0.2803,-0.2803,0,-0.243,-0.2464,-0.2475,-0.2538,-0.2573,-0.2604,-0.2662,-0.2693,-0.2717,-0.2743,-0.2772,-0.2783,-0.28,-0.2813,-0.2815,-0.2831,-0.2812,-0.2813,-0.2791,-0.2813,-0.2782,-0.2778,-0.2806,-0.2806,-0.2805,-0.2805,0,0,-0.2363,-0.2462,-0.2465,-0.2503,-0.2584,-0.2613,-0.2667,-0.2723,-0.2747,-0.2783,-0.2804,-0.2837,-0.2835,-0.2842,-0.2849,-0.2847,-0.2838,-0.2833,-0.2831,-0.2798,-0.2802,-0.2713,-0.27,-0.2842,-0.2841,-0.2841,-0.2777,0,-0.2356,-0.2421,-0.2474,-0.2533,-0.2574,-0.2639,-0.2686,-0.274,-0.2775,-0.2805,-0.2824,-0.2842,-0.285,-0.2854,-0.2857,-0.2846,-0.2832,-0.2854,-0.279,-0.2787,-0.27,-0.2695,-0.25,-0.2419,-0.2773,-0.2773,-0.2772,0,-0.2343,-0.2394,-0.2453,-0.2548,-0.2568,-0.2609,-0.2683,-0.2731,-0.2789,-0.2812,-0.2836,-0.2847,-0.2862,-0.2856,-0.2842,-0.2855,-0.2826,-0.2811,-0.2808,-0.2707,-0.2692,-0.2456,-0.24,-0.2766,-0.2767,-0.2767,-0.2768,0,-0.2282,-0.2375,-0.2422,-0.2456,-0.2568,-0.2597,-0.265,-0.2721,-0.2753,-0.2804,-0.282,-0.2844,-0.2848,-0.283,-0.2813,-0.2823,-0.2778,-0.2786,-0.2674,-0.2667,-0.2477,-0.2453,-0.2752,-0.2752,-0.2752,-0.2753,-0.2753,0,-0.226,-0.2293,-0.2396,-0.2424,-0.2466,-0.2558,-0.2597,-0.2656,-0.2721,-0.2744,-0.2807,-0.2815,-0.284,-0.2827,-0.2803,-0.2723,-0.2768,-0.266,-0.2641,-0.2484,-0.2463,-0.2748,-0.2749,-0.275,-0.2751,-0.2751,-0.2752,0,-0.2185,-0.2262,-0.2311,-0.2414,-0.2442,-0.2465,-0.2557,-0.2579,-0.2666,-0.2695,-0.2708,-0.2782,-0.276,-0.2765,-0.273,-0.2694,-0.2636,-0.2593,-0.24,-0.2359,-0.2531,-0.2535,-0.2451,-0.2447,-0.2444,-0.2441,-0.2439,0,-0.2155,-0.2175,-0.2267,-0.2282,-0.2323,-0.2378,-0.2408,-0.2522,-0.2551,-0.266,-0.2658,-0.2678,-0.2649,-0.2583,-0.2508,-0.2422,-0.253,-0.2216,-0.2197,-0.2508,-0.2499,-0.2508,-0.2515,-0.1959,-0.1953,-0.1948,-0.1944,0,-0.2075,-0.2104,-0.214,-0.2173,-0.2204,-0.2246,-0.2306,-0.2325,-0.2451,-0.248,-0.2509,-0.2497,-0.2447,-0.2274,-0.2191,-0.2127,-0.2217,-0.2112,-0.2472,-0.2074,-0.2041,-0.2034,-0.2058,-0.1901,-0.1905,-0.1908,-0.191,-0.1912,-0.1984,-0.1981,-0.2022,-0.2042,-0.2076,-0.2095,-0.2073,-0.2146,-0.2167,-0.2183,-0.2279,-0.2199,-0.2191,-0.1942,-0.1835,-0.1755,-0.191,-0.1843,-0.1859,-0.188,-0.1843,-0.1808,-0.1615,-0.1617,-0.162,-0.1622,-0.1623,0,-0.1866,-0.1879,-0.1887,-0.1907,-0.1883,-0.1954,-0.1981,-0.1931,-0.1894,-0.1935,-0.1919,-0.1726,-0.16,-0.1595,-0.1389,-0.1353,-0.1349,-0.131,-0.131,-0.1354,-0.1392,-0.1333,-0.0968,-0.0966,-0.0964,-0.0962,0,0,-0.1804,-0.1773,-0.1785,-0.171,-0.1712,-0.1631,-0.1609,-0.1559,-0.155,-0.1467,-0.1423,-0.1525,-0.1554,-0.1271,-0.1197,-0.1047,-0.1193,-0.0993,-0.1518,-0.1562,-0.1598,-0.1695,-0.1652,0,0,0,0,0]},{"header":{"parameterUnit":"m.s-1","parameterCategory":2,"la1":30.2991,"la2":30.254,"lo1":-89.0895,"lo2":-89.0444,"dy":0.0017,"dx":0.0017,"nx":28,"ny":28,"refTime":"2024-04-12T21:00:00:Z","depth":"2","parameterNumber":3,"parameterNumberName":"V-component_of_CURRENTS"},"data":[0,0,0,0,0,0,0,0,0,0,0,0,0,0,0,0,0,0,0,0,0,0,0,0,0,0,0,0,0,0,0,0,0,0,0,0,0,0,0,0,0,0,0,0,0,0,0,0,0,0,0,0,0,0,0,0,0,0,-0.0234,-0.0233,0,-0.0146,-0.0145,-0.0144,-0.0082,-0.0082,-0.0082,-0.0081,0.0043,0.0045,0.0048,0,0,0,0,0,0,0,0,0,0,0,0,0,-0.0321,-0.032,-0.0234,-0.0233,-0.0232,-0.0146,-0.0145,-0.0143,-0.0083,-0.0082,-0.0082,-0.0081,0.0042,0.0045,0.0049,0,0,0,0,0,0,0,0,0,0,0,0,0,-0.0263,-0.032,-0.0235,-0.0192,-0.0188,-0.0146,-0.0145,-0.0143,-0.0083,-0.0082,-0.0081,-0.0081,0.004,0.0045,0.0049,0.0065,0,0,0.0063,0.0064,0,0,0,0,0,0,0,0,-0.0266,-0.026,-0.0199,-0.0195,-0.019,-0.0125,-0.013,-0.0072,-0.0083,-0.0122,-0.0081,-0.0081,-0.0011,-0.0003,0.0013,0.007,0.0076,0.0063,0.0066,0.0068,0.0069,0,0,0,0,0,0,0,-0.027,-0.0263,-0.0199,-0.0198,-0.0192,-0.0167,-0.0159,-0.0119,-0.007,-0.0118,-0.0114,-0.0105,-0.0008,0.0009,0.0017,0.0078,0.0063,0.0067,0.0069,0.0071,0.0163,0.0163,0,0,0,0,0,0,-0.0285,-0.0267,-0.0201,-0.0196,-0.0228,-0.0167,-0.0157,-0.0146,-0.0071,-0.0059,-0.0106,-0.0103,0.0001,0.0012,0.0022,0.0046,0.0067,0.0072,0.0074,0.0163,0.0163,0.0163,0,0,0,0,0,0,-0.0287,-0.028,-0.0205,-0.023,-0.0219,-0.0166,-0.0154,-0.0144,-0.0127,-0.0062,-0.0049,-0.0098,0.0002,0.0015,0.0054,0.0051,0.0074,0.0078,0.0163,0.0163,0.0163,0.0093,0,0,0,0,0,0,-0.029,-0.0281,-0.0283,-0.0231,-0.0218,-0.019,-0.0154,-0.0143,-0.0123,-0.0118,-0.0051,-0.0039,0.0004,0.0047,0.0058,0.0057,0.0081,0.0164,0.0163,0.0163,0.0096,0.0091,0.0086,0,0,0,0,0,-0.0293,-0.03,-0.0283,-0.0276,-0.0221,-0.019,-0.0182,-0.0141,-0.0123,-0.0122,-0.0074,-0.0041,0.0053,0.005,0.0064,0.0064,0.0164,0.0163,0.0163,0.0098,0.0092,0.0086,0,0,0,0,0,0,-0.034,-0.0293,-0.0274,-0.0266,-0.0235,-0.018,-0.0176,-0.0148,-0.0109,-0.0105,-0.0042,-0.0027,0.0005,0.0043,0.0039,0.0089,0.0113,0.0115,0.006,0.0054,0.0049,0.0033,0.0085,0,0,0,0,0,-0.0352,-0.0345,-0.0296,-0.0292,-0.0278,-0.0229,-0.0212,-0.0186,-0.0143,-0.0126,-0.0079,-0.0029,0.0013,0.0039,0.0079,0.0108,0.0152,0.0117,0.0112,0.0107,0.0103,0.017,0.0171,0.0161,0.0161,0.0161,0,0,-0.0369,-0.0344,-0.0339,-0.0302,-0.0273,-0.0265,-0.0217,-0.0199,-0.019,-0.0119,-0.0094,-0.0046,0.0015,0.0046,0.0064,0.0079,0.0131,0.0107,0.0102,0.0101,0.0169,0.017,0.0171,0.0161,0.0161,0.0161,0,0,-0.0407,-0.0378,-0.0386,-0.0367,-0.0333,-0.0298,-0.0296,-0.0245,-0.022,-0.0191,-0.0137,-0.009,-0.0032,0.0018,0.005,0.0043,0.01,0.0052,0.0021,0.0086,0.0087,0.0089,0.0137,0.0143,0.0054,0.0054,0.0054,0,-0.0432,-0.0432,-0.0386,-0.0393,-0.0385,-0.0318,-0.033,-0.0292,-0.0236,-0.0214,-0.0195,-0.0096,-0.0043,0.0009,0.0006,0.0033,0.0071,0.0037,0.0079,0.0082,0.0085,0.0134,0.0142,0.0051,0.0051,0.0052,0.0052,0,-0.0474,-0.0478,-0.0483,-0.0466,-0.0452,-0.0451,-0.0397,-0.0371,-0.0331,-0.0287,-0.0233,-0.0157,-0.0096,-0.0072,-0.0033,0.0013,0.0033,0.0061,0.0091,0.0082,0.0134,0.0144,0.0046,0.0047,0.0048,0.0049,0,0,-0.052,-0.0515,-0.0518,-0.053,-0.0493,-0.0487,-0.0466,-0.0423,-0.0403,-0.0339,-0.0309,-0.0227,-0.0177,-0.0138,-0.0076,-0.0017,0.0038,0.0023,0.0028,0.0065,0.0169,0.0209,0.0224,0.0074,0.0075,0.0076,0.0193,0,-0.0567,-0.0609,-0.0585,-0.0617,-0.0631,-0.0573,-0.0563,-0.0516,-0.0453,-0.0403,-0.0309,-0.0258,-0.0203,-0.0173,-0.0106,0.0002,0.0062,0.0003,0.0177,0.0182,0.0216,0.0237,0.02,0.0303,0.0203,0.0205,0.0206,0,-0.0616,-0.0638,-0.0687,-0.0698,-0.0698,-0.0701,-0.0663,-0.0641,-0.0546,-0.0499,-0.0418,-0.034,-0.0244,-0.0197,-0.0021,-0.0063,0.0042,0.0127,0.0135,0.0204,0.0242,0.03,0.0325,0.0223,0.0222,0.022,0.0219,0,-0.0679,-0.0708,-0.0753,-0.0758,-0.0754,-0.0758,-0.0742,-0.0671,-0.065,-0.0547,-0.0515,-0.039,-0.0325,-0.0182,-0.0002,-0.0012,0.0197,0.021,0.0346,0.0349,0.0369,0.0372,0.0337,0.0337,0.0336,0.0336,0.0336,0,-0.0741,-0.0775,-0.0787,-0.0813,-0.0859,-0.0826,-0.0837,-0.0793,-0.0729,-0.07,-0.0569,-0.051,-0.0318,-0.0171,-0.0015,0.02,0.0193,0.0346,0.0389,0.0343,0.0342,0.0313,0.0309,0.034,0.0339,0.0339,0.0338,0,-0.0803,-0.0812,-0.0867,-0.0885,-0.0892,-0.0922,-0.0916,-0.0912,-0.0837,-0.0791,-0.0765,-0.0599,-0.0404,-0.0197,0.0049,0.0184,0.0385,0.0465,0.039,0.0423,0.049,0.0481,0.0613,0.0616,0.0618,0.062,0.0621,0,-0.0841,-0.0874,-0.0927,-0.0966,-0.0977,-0.1007,-0.1024,-0.0974,-0.0961,-0.0835,-0.0819,-0.0627,-0.047,-0.0096,0.017,0.0453,0.0455,0.058,0.0562,0.0494,0.0522,0.0509,0.0497,0.0555,0.0556,0.0557,0.0557,0,-0.0905,-0.0921,-0.0967,-0.1046,-0.1087,-0.1127,-0.1138,-0.1147,-0.107,-0.1001,-0.0867,-0.0727,-0.0371,-0.0055,0.0306,0.0462,0.0529,0.0604,0.0575,0.0489,0.0449,0.0473,0.0462,0.0563,0.0563,0.0562,0.0562,0.0562,-0.0946,-0.0996,-0.1052,-0.1126,-0.118,-0.1224,-0.124,-0.1218,-0.1179,-0.1043,-0.0909,-0.0655,-0.0363,0.0157,0.041,0.0633,0.0622,0.068,0.0674,0.0668,0.0639,0.0605,0.0742,0.0743,0.0743,0.0743,0.0743,0,-0.0993,-0.1046,-0.1123,-0.1207,-0.1269,-0.1275,-0.1299,-0.1269,-0.12,-0.1034,-0.0858,-0.0508,-0.0148,0.0153,0.0519,0.0737,0.0701,0.0758,0.0674,0.0667,0.0661,0.0627,0.073,0.0731,0.0732,0.0732,0,0,-0.1019,-0.11,-0.1141,-0.1256,-0.131,-0.1348,-0.1352,-0.1277,-0.1151,-0.0959,-0.0759,-0.0494,-0.0126,0.0136,0.0399,0.0584,0.0565,0.0588,0.0575,0.0438,0.043,0.0593,0.0531,0,0,0,0,0]}],[{"header":{"parameterUnit":"m.s-1","parameterCategory":2,"la1":30.2991,"la2":30.254,"lo1":-89.0895,"lo2":-89.0444,"dy":0.0017,"dx":0.0017,"nx":28,"ny":28,"refTime":"2024-04-12T21:00:00:Z","depth":"4","parameterNumber":2,"parameterNumberName":"U-component_of_CURRENTS"},"data":[0,0,0,0,0,0,0,0,0,0,0,0,0,0,0,0,0,0,0,0,0,0,0,0,0,0,0,0,0,0,0,0,0,0,0,0,0,0,0,0,0,0,0,0,0,0,0,0,0,0,0,0,0,0,0,0,0,0,-0.1828,-0.1829,0,-0.1912,-0.1913,-0.1914,-0.1962,-0.1962,-0.1962,-0.1962,-0.2043,-0.2045,-0.2047,0,0,0,0,0,0,0,0,0,0,0,0,0,-0.1701,-0.1703,-0.1828,-0.1829,-0.183,-0.1912,-0.1913,-0.1914,-0.1962,-0.1962,-0.1962,-0.1962,-0.2043,-0.2045,-0.2047,0,0,0,0,0,0,0,0,0,0,0,0,0,-0.1767,-0.1704,-0.1827,-0.1864,-0.1869,-0.1912,-0.1913,-0.1914,-0.1961,-0.1962,-0.1962,-0.1963,-0.2042,-0.2045,-0.2048,-0.2057,0,0,-0.2056,-0.2058,0,0,0,0,0,0,0,0,-0.1763,-0.1771,-0.1858,-0.1862,-0.1867,-0.1928,-0.1898,-0.1962,-0.1961,-0.1925,-0.1962,-0.1963,-0.2005,-0.2011,-0.2024,-0.2061,-0.2065,-0.2057,-0.2058,-0.206,-0.206,0,0,0,0,0,0,0,-0.1758,-0.1768,-0.186,-0.1859,-0.1865,-0.1875,-0.1884,-0.191,-0.1961,-0.1928,-0.1932,-0.1943,-0.2007,-0.2021,-0.2026,-0.2066,-0.2057,-0.2059,-0.2061,-0.2062,-0.2182,-0.2184,0,0,0,0,0,0,-0.1751,-0.1764,-0.1857,-0.1863,-0.1816,-0.1877,-0.1887,-0.1907,-0.1961,-0.197,-0.1943,-0.1945,-0.2016,-0.2023,-0.2029,-0.2113,-0.206,-0.2062,-0.2064,-0.2181,-0.2183,-0.2184,0,0,0,0,0,0,-0.1748,-0.1758,-0.1854,-0.1815,-0.1828,-0.1879,-0.19,-0.1908,-0.1953,-0.1972,-0.1981,-0.1982,-0.2017,-0.2025,-0.2079,-0.2114,-0.2064,-0.2066,-0.2179,-0.2182,-0.2184,-0.2236,0,0,0,0,0,0,-0.1744,-0.1757,-0.1781,-0.1815,-0.183,-0.1895,-0.19,-0.191,-0.1958,-0.1962,-0.2008,-0.2014,-0.2018,-0.2075,-0.2082,-0.2117,-0.2068,-0.2177,-0.218,-0.2183,-0.2232,-0.2239,-0.2246,0,0,0,0,0,-0.1739,-0.1762,-0.1782,-0.1794,-0.1858,-0.1896,-0.1906,-0.1941,-0.196,-0.1982,-0.2017,-0.2014,-0.2097,-0.2079,-0.2087,-0.2123,-0.2176,-0.2179,-0.2183,-0.2229,-0.2238,-0.2245,0,0,0,0,0,0,-0.1722,-0.177,-0.1792,-0.1831,-0.1871,-0.1905,-0.1932,-0.196,-0.2006,-0.2019,-0.2036,-0.2045,-0.2103,-0.2107,-0.2086,-0.2165,-0.2135,-0.214,-0.2168,-0.2176,-0.2183,-0.2169,-0.2071,0,0,0,0,0,-0.1729,-0.1759,-0.1805,-0.1839,-0.186,-0.1904,-0.193,-0.1958,-0.1997,-0.2019,-0.2053,-0.2087,-0.2118,-0.2144,-0.2167,-0.2216,-0.2195,-0.2243,-0.225,-0.2256,-0.225,-0.2253,-0.2259,-0.2195,-0.2195,-0.2195,0,0,-0.1731,-0.1762,-0.1781,-0.1837,-0.187,-0.1909,-0.1921,-0.1969,-0.2011,-0.202,-0.2091,-0.2114,-0.2135,-0.2186,-0.2213,-0.2199,-0.2263,-0.226,-0.2265,-0.2256,-0.2257,-0.2263,-0.2269,-0.2198,-0.2197,-0.2197,0,0,-0.1734,-0.178,-0.1802,-0.1841,-0.1898,-0.1929,-0.1951,-0.2008,-0.2045,-0.2109,-0.2125,-0.2168,-0.2226,-0.2243,-0.2259,-0.2318,-0.2296,-0.2336,-0.2365,-0.2369,-0.2374,-0.2378,-0.2355,-0.2356,-0.2342,-0.2343,-0.2343,0,-0.1736,-0.1777,-0.1815,-0.185,-0.1887,-0.1942,-0.1981,-0.2025,-0.2097,-0.2128,-0.2139,-0.2226,-0.2248,-0.23,-0.2322,-0.2333,-0.2323,-0.2333,-0.2377,-0.238,-0.2383,-0.2358,-0.2359,-0.2345,-0.2345,-0.2345,-0.2345,0,-0.1749,-0.1799,-0.1817,-0.1881,-0.1925,-0.1969,-0.2033,-0.209,-0.2144,-0.2182,-0.2255,-0.2286,-0.2332,-0.2354,-0.236,-0.2403,-0.2384,-0.2381,-0.2352,-0.2393,-0.2364,-0.2364,-0.235,-0.2349,-0.2348,-0.2347,0,0,-0.1703,-0.1806,-0.1816,-0.1859,-0.195,-0.1985,-0.2063,-0.2138,-0.2188,-0.2257,-0.2311,-0.2373,-0.2391,-0.2408,-0.2426,-0.2437,-0.2453,-0.2426,-0.2425,-0.2395,-0.2446,-0.228,-0.2264,-0.2463,-0.2464,-0.2464,-0.2414,0,-0.1705,-0.1774,-0.1828,-0.1907,-0.1951,-0.2032,-0.2097,-0.2174,-0.2238,-0.2303,-0.2347,-0.24,-0.2412,-0.2439,-0.2456,-0.2457,-0.2457,-0.2465,-0.2417,-0.2415,-0.2257,-0.226,-0.2466,-0.2414,-0.2414,-0.2414,-0.2414,0,-0.1692,-0.1747,-0.1822,-0.1933,-0.1959,-0.2019,-0.2131,-0.2195,-0.2291,-0.2338,-0.2398,-0.2428,-0.2473,-0.2468,-0.2483,-0.2491,-0.247,-0.246,-0.2458,-0.2282,-0.2249,-0.2367,-0.2413,-0.2413,-0.2413,-0.2413,-0.2413,0,-0.163,-0.1739,-0.1803,-0.1842,-0.1972,-0.2029,-0.2102,-0.2207,-0.226,-0.2357,-0.2395,-0.2452,-0.2481,-0.248,-0.2472,-0.2482,-0.246,-0.2466,-0.2292,-0.228,-0.2423,-0.2419,-0.2454,-0.2454,-0.2454,-0.2454,-0.2454,0,-0.1598,-0.1653,-0.1787,-0.1823,-0.19,-0.2004,-0.2087,-0.2167,-0.2267,-0.2311,-0.2405,-0.2427,-0.2487,-0.2487,-0.247,-0.2367,-0.2456,-0.2279,-0.2252,-0.2446,-0.2445,-0.2422,-0.2419,-0.2452,-0.2453,-0.2453,-0.2454,0,-0.1517,-0.161,-0.1686,-0.1828,-0.1875,-0.1929,-0.2068,-0.2113,-0.2232,-0.2288,-0.2317,-0.2411,-0.2396,-0.2419,-0.2405,-0.2338,-0.2273,-0.2214,-0.2401,-0.2389,-0.209,-0.2091,-0.2001,-0.1995,-0.199,-0.1985,-0.1981,0,-0.1481,-0.1514,-0.1662,-0.1702,-0.1771,-0.1871,-0.1929,-0.2072,-0.2114,-0.225,-0.2251,-0.2292,-0.2327,-0.2166,-0.2216,-0.214,-0.2122,-0.2079,-0.2095,-0.2059,-0.2043,-0.2052,-0.206,-0.1973,-0.1971,-0.197,-0.1969,0,-0.1399,-0.1463,-0.1521,-0.1607,-0.1679,-0.1749,-0.1846,-0.186,-0.2007,-0.2129,-0.2112,-0.2094,-0.2068,-0.2041,-0.1991,-0.195,-0.2105,-0.2023,-0.2034,-0.2048,-0.2023,-0.2015,-0.2029,-0.195,-0.1953,-0.1954,-0.1956,0,-0.1327,-0.1342,-0.1426,-0.1484,-0.1568,-0.16,-0.1673,-0.1716,-0.1776,-0.1929,-0.191,-0.196,-0.2039,-0.1939,-0.19,-0.1834,-0.1808,-0.1761,-0.1786,-0.1807,-0.1766,-0.1707,-0.1494,0,0,0,0,0,-0.1248,-0.1254,-0.1297,-0.1357,-0.1431,-0.1482,-0.1602,-0.1677,-0.1814,-0.1743,-0.1823,-0.1786,-0.1728,-0.176,-0.1644,-0.1804,-0.1814,-0.1664,-0.1775,-0.1847,-0.1868,-0.1838,0,0,0,0,0,0,-0.1195,-0.1232,-0.1252,-0.1236,-0.1246,-0.1317,-0.1383,-0.1481,-0.1458,-0.1596,-0.1563,-0.1668,-0.1627,-0.1746,-0.16,-0.1606,-0.1638,-0.1702,-0.1697,-0.1834,-0.1854,-0.1871,-0.1848,0,0,0,0,0]},{"header":{"parameterUnit":"m.s-1","parameterCategory":2,"la1":30.2991,"la2":30.254,"lo1":-89.0895,"lo2":-89.0444,"dy":0.0017,"dx":0.0017,"nx":28,"ny":28,"refTime":"2024-04-12T21:00:00:Z","depth":"4","parameterNumber":3,"parameterNumberName":"V-component_of_CURRENTS"},"data":[0,0,0,0,0,0,0,0,0,0,0,0,0,0,0,0,0,0,0,0,0,0,0,0,0,0,0,0,0,0,0,0,0,0,0,0,0,0,0,0,0,0,0,0,0,0,0,0,0,0,0,0,0,0,0,0,0,0,-0.0197,-0.0197,0,-0.0142,-0.0142,-0.0141,-0.0102,-0.0102,-0.0102,-0.0102,-0.0005,-0.0003,-0.0,0,0,0,0,0,0,0,0,0,0,0,0,0,-0.0242,-0.0241,-0.0197,-0.0197,-0.0196,-0.0142,-0.0142,-0.0141,-0.0102,-0.0102,-0.0102,-0.0101,-0.0006,-0.0003,-0.0,0,0,0,0,0,0,0,0,0,0,0,0,0,-0.0207,-0.0241,-0.0197,-0.0171,-0.0168,-0.0143,-0.0141,-0.014,-0.0102,-0.0102,-0.0102,-0.0101,-0.0007,-0.0003,0.0,0.0016,0,0,0.0011,0.0013,0,0,0,0,0,0,0,0,-0.0209,-0.0206,-0.0176,-0.0173,-0.017,-0.013,-0.0122,-0.0086,-0.0102,-0.0126,-0.0102,-0.0101,-0.0044,-0.0037,-0.0027,0.002,0.0025,0.0012,0.0014,0.0015,0.0016,0,0,0,0,0,0,0,-0.0212,-0.0208,-0.0175,-0.0175,-0.0171,-0.0153,-0.0148,-0.0115,-0.0086,-0.0124,-0.0122,-0.0117,-0.0041,-0.003,-0.0024,0.0026,0.0011,0.0015,0.0017,0.0018,0.0091,0.0091,0,0,0,0,0,0,-0.0222,-0.021,-0.0176,-0.0173,-0.019,-0.0152,-0.0147,-0.0142,-0.0087,-0.0079,-0.0117,-0.0115,-0.0036,-0.0028,-0.002,-0.0,0.0015,0.0019,0.0021,0.0092,0.0091,0.0091,0,0,0,0,0,0,-0.0223,-0.022,-0.0179,-0.0191,-0.0185,-0.0152,-0.0147,-0.0141,-0.0131,-0.0083,-0.0073,-0.0114,-0.0036,-0.0025,0.0004,0.0004,0.002,0.0023,0.0092,0.0091,0.0091,0.0041,0,0,0,0,0,0,-0.0225,-0.0221,-0.0225,-0.0192,-0.0184,-0.0171,-0.0147,-0.014,-0.0129,-0.0126,-0.0076,-0.0067,-0.0035,-0.0002,0.0008,0.0009,0.0026,0.0092,0.0092,0.0091,0.0043,0.0039,0.0036,0,0,0,0,0,-0.0227,-0.0235,-0.0225,-0.0221,-0.019,-0.0171,-0.0166,-0.0141,-0.0129,-0.0129,-0.0095,-0.0068,0.0003,0.0001,0.0012,0.0015,0.0092,0.0092,0.0091,0.0045,0.004,0.0036,0,0,0,0,0,0,-0.0256,-0.0231,-0.022,-0.0219,-0.0201,-0.0165,-0.0165,-0.0146,-0.012,-0.0117,-0.0069,-0.0058,-0.0034,-0.0004,-0.0007,0.0034,0.0052,0.0053,0.0013,0.0009,0.0005,-0.0008,0.0029,0,0,0,0,0,-0.0266,-0.0266,-0.0236,-0.0238,-0.023,-0.0198,-0.0189,-0.0172,-0.0143,-0.0132,-0.0097,-0.0059,-0.0027,-0.0006,0.0024,0.0049,0.0089,0.0057,0.0054,0.005,0.0047,0.0116,0.0119,0.009,0.009,0.009,0,0,-0.0278,-0.0265,-0.0265,-0.0245,-0.0228,-0.0225,-0.0192,-0.0183,-0.0178,-0.0125,-0.0109,-0.0073,-0.0025,-0.0001,0.0014,0.0026,0.0077,0.005,0.0047,0.0045,0.0116,0.0119,0.0122,0.0089,0.0089,0.0089,0,0,-0.0306,-0.0291,-0.0301,-0.0291,-0.0272,-0.025,-0.025,-0.0218,-0.0201,-0.0182,-0.0142,-0.0104,-0.0062,-0.002,0.0006,0.0002,0.0051,0.0007,-0.0014,0.0053,0.0057,0.006,0.0102,0.011,0.0011,0.0011,0.0011,0,-0.0324,-0.033,-0.0302,-0.0311,-0.0309,-0.0265,-0.0277,-0.0251,-0.0215,-0.0198,-0.0188,-0.011,-0.0069,-0.0021,-0.0025,-0.0005,0.0031,-0.0002,0.0049,0.0054,0.0058,0.0101,0.011,0.0008,0.0008,0.0009,0.0009,0,-0.0356,-0.0365,-0.0371,-0.0366,-0.036,-0.0363,-0.0328,-0.0313,-0.0287,-0.0255,-0.0211,-0.0152,-0.0103,-0.0083,-0.0056,-0.0007,0.0006,0.0033,0.006,0.0058,0.0103,0.0113,0.0005,0.0006,0.0006,0.0007,0,0,-0.0385,-0.0393,-0.0397,-0.0411,-0.0392,-0.0391,-0.038,-0.0351,-0.0336,-0.029,-0.0263,-0.02,-0.0159,-0.0128,-0.0078,-0.002,0.0039,0.0012,0.0016,0.0051,0.017,0.0149,0.0158,0.0076,0.0078,0.0079,0.0185,0,-0.042,-0.0458,-0.0447,-0.0479,-0.0493,-0.0458,-0.0454,-0.0422,-0.0376,-0.0336,-0.0257,-0.0216,-0.0177,-0.0152,-0.0087,0.0005,0.0065,0.0006,0.0168,0.0172,0.0153,0.017,0.0085,0.0193,0.0195,0.0197,0.0198,0,-0.0454,-0.0476,-0.0521,-0.054,-0.0543,-0.0553,-0.0532,-0.0519,-0.0443,-0.0407,-0.0338,-0.0274,-0.0189,-0.0153,0.0006,-0.0035,0.0059,0.0134,0.0141,0.0146,0.0171,0.02,0.0217,0.0216,0.0214,0.0213,0.0212,0,-0.0492,-0.0526,-0.0568,-0.0576,-0.0586,-0.0597,-0.0593,-0.0542,-0.0529,-0.0442,-0.0415,-0.0304,-0.0249,-0.0118,0.0029,0.0021,0.021,0.0225,0.0297,0.0296,0.0306,0.0301,0.035,0.035,0.0349,0.0349,0.0349,0,-0.0529,-0.0562,-0.0594,-0.0617,-0.0664,-0.0649,-0.0667,-0.0637,-0.0589,-0.0563,-0.0456,-0.0404,-0.0236,-0.011,0.0025,0.0185,0.0212,0.0294,0.0328,0.0279,0.0271,0.0313,0.0307,0.0353,0.0352,0.0351,0.0351,0,-0.056,-0.0581,-0.0635,-0.067,-0.0686,-0.0718,-0.0734,-0.0733,-0.0679,-0.0638,-0.0616,-0.0477,-0.0316,-0.0142,0.0077,0.0169,0.0334,0.0392,0.0313,0.034,0.0373,0.0364,0.0468,0.0469,0.0469,0.0469,0.0469,0,-0.0578,-0.0609,-0.0682,-0.0723,-0.0745,-0.0785,-0.0809,-0.0784,-0.0771,-0.0673,-0.0652,-0.0501,-0.0389,-0.0094,0.0079,0.0326,0.0364,0.0437,0.0413,0.0366,0.0389,0.0379,0.0369,0.047,0.047,0.047,0.047,0,-0.0608,-0.064,-0.0684,-0.077,-0.0821,-0.0866,-0.0889,-0.089,-0.0836,-0.0797,-0.0657,-0.0494,-0.0313,-0.0097,0.0094,0.0275,0.0378,0.044,0.044,0.0419,0.0369,0.0389,0.0379,0.0471,0.047,0.047,0.047,0,-0.063,-0.0672,-0.0735,-0.0806,-0.0878,-0.0918,-0.0928,-0.0894,-0.0872,-0.0756,-0.0711,-0.0493,-0.0371,-0.0121,0.0061,0.0223,0.0258,0.0303,0.0312,0.0313,0.0231,0.0142,0.0207,0,0,0,0,0,-0.0641,-0.0688,-0.0761,-0.0838,-0.0909,-0.0941,-0.0966,-0.0957,-0.091,-0.0816,-0.0757,-0.0575,-0.0293,-0.0167,-0.0007,0.0039,0.0262,0.0228,0.0313,0.0475,0.0474,0.0402,0,0,0,0,0,0,-0.0652,-0.0721,-0.0758,-0.0845,-0.0897,-0.096,-0.0976,-0.0946,-0.0878,-0.0807,-0.0653,-0.0552,-0.0281,-0.0383,-0.0007,0.0042,0.0114,0.0365,0.0368,0.0475,0.0474,0.0474,0.0399,0,0,0,0,0]}]]